This is the latest recevied weather packets stored in our database for station/object AB8Y-13. If no packets are shown the sender has not sent any weather packets the latest 10 day(s).
| Time | Temp. | Humidity | Pressure | Rain* | Wind** | Luminosity | Snow |
|---|---|---|---|---|---|---|---|
| 1777583594 | 13.89° C | 35% | 1014.1 hPa | 0 mm | - | 225 W/m² | - |
| 1777583292 | 13.89° C | 36% | 1013.9 hPa | 0 mm | - | 685 W/m² | - |
| 1777582988 | 13.33° C | 36% | 1014.2 hPa | 0 mm | - | 759 W/m² | - |
| 1777582686 | 12.78° C | 41% | 1013.9 hPa | 0 mm | - | 799 W/m² | - |
| 1777582380 | 11.67° C | 46% | 1014 hPa | 0 mm | - | 758 W/m² | - |
| 1777582079 | 11.67° C | 42% | 1014 hPa | 0 mm | - | 510 W/m² | - |
| 1777581774 | 11.67° C | 39% | 1014.4 hPa | 0 mm | - | 308 W/m² | - |
| 1777581472 | 11.11° C | 42% | 1014.2 hPa | 0 mm | - | 379 W/m² | - |
| 1777581168 | 11.11° C | 46% | 1014.4 hPa | 0 mm | - | 320 W/m² | - |
| 1777580868 | 11.11° C | 43% | 1014.2 hPa | 0 mm | - | 308 W/m² | - |
| 1777580563 | 10.56° C | 44% | 1014.2 hPa | 0 mm | - | 274 W/m² | - |
| 1777580259 | 10.56° C | 43% | 1014.3 hPa | 0 mm | - | 240 W/m² | - |
| 1777579956 | 10.56° C | 48% | 1014.4 hPa | 0 mm | - | 236 W/m² | - |
| 1777579651 | 11.11° C | 42% | 1014.3 hPa | 0 mm | - | 261 W/m² | - |
| 1777579350 | 11.11° C | 41% | 1014.3 hPa | 0 mm | - | 381 W/m² | - |
| 1777579046 | 11.11° C | 45% | 1014.5 hPa | 0 mm | - | 536 W/m² | - |
| 1777578741 | 10.56° C | 42% | 1014.7 hPa | 0 mm | - | 341 W/m² | - |
| 1777578441 | 10.56° C | 49% | 1014.4 hPa | 0 mm | - | 434 W/m² | - |
| 1777578137 | 10.56° C | 44% | 1014.3 hPa | 0 mm | - | 215 W/m² | - |
| 1777577833 | 11.11° C | 47% | 1014.5 hPa | 0 mm | - | 259 W/m² | - |
| 1777577528 | 10° C | 52% | 1014.7 hPa | 0 mm | - | 1105 W/m² | - |
| 1777577225 | 10° C | 49% | 1014.6 hPa | 0 mm | - | 211 W/m² | - |
| 1777576921 | 9.44° C | 51% | 1014.7 hPa | 0 mm | - | 144 W/m² | - |
| 1777576616 | 9.44° C | 47% | 1014.9 hPa | 0 mm | - | 181 W/m² | - |
| 1777576312 | 9.44° C | 52% | 1014.7 hPa | 0 mm | - | 124 W/m² | - |
* Rain latest hour (hover to see other rain measurements)
** Current wind speed in m/s (hover to see current wind gust speed)